Probability
0 0 0 0 1 0 0 0 0 0 0 0 0 0 0 0 0 0 0 0 0 0 0 0 0 0 0 0 0 0 0 0 0 0 0 0 0 0 0 0 0 0 0
0 0 0 0 1 0 0 0 0 0 0 0 0 0 0 0 0 0 0 0 0 0 0 0 0 0 0 0 0 0 0 0 0 0 0 0 0 0 1 1 0 0 0
0 0 0 0 0 0 0 0 0 0 0 0 0 0 0 0 0 0 0 0 0 0 0 0 0 0 0 0 0 0 0 0 0 0 0 0 0 0 1 1 0 0 0
1 1 1 0 0 0 0 0 0 0 0 0 0 0 0 0 0 0 0 0 0 0 0 0 0 0 0 0 0 0 0 0 0 0 0 0 0 0 1 1 0 0 0
2 2 1 0 0 0 0 0 0 0 0 0 0 0 0 0 0 0 0 0 0 0 0 0 0 0 0 0 0 0 0 0 0 0 0 0 0 0 0 0 0 0 0
3 2 1 1 0 0 0 0 0 0 0 0 0 0 0 0 0 0 0 0 0 0 0 0 0 0 0 0 0 0 0 0 0 0 0 0 0 0 0 0 0 0 0
3 2 1 0 0 0 0 0 0 0 0 0 0 0 0 0 0 0 0 0 0 0 0 0 0 0 0 0 0 0 0 0 0 0 0 0 0 0 0 0 0 0 0
2 1 0 0 0 0 0 0 0 0 0 0 0 0 0 0 0 0 0 0 0 0 0 0 0 0 0 0 0 0 0 0 0 0 0 0 0 0 0 0 0 0 0
1 0 0 0 0 0 0 0 0 0 0 0 0 0 0 0 0 0 0 0 0 0 0 0 0 0 0 0 0 0 0 0 0 0 0 0 0 0 0 0 0 0 0
0 0 0 0 0 0 0 0 0 0 0 0 0 0 0 0 0 0 0 0 0 0 0 0 0 0 0 0 0 0 0 0 0 0 0 0 0 0 0 0 0 0 0
0 0 0 0 0 0 0 0 0 0 0 0 0 0 0 0 0 0 0 0 0 0 0 0 0 0 0 0 0 0 0 0 0 0 0 0 0 0 0 0 0 0 0
0 0 0 0 0 0 0 0 0 0 0 0 0 0 0 0 0 0 0 0 0 1 1 1 1 1 1 0 0 0 0 0 0 0 0 0 0 0 0 0 0 0 0
0 0 0 0 0 0 0 0 0 0 0 0 0 0 0 0 0 0 0 0 1 2 2 2 2 2 2 1 0 0 0 0 0 0 0 0 0 0 0 0 0 0 0
0 0 0 0 0 0 0 0 0 0 0 0 0 0 0 0 0 0 0 0 1 2 3 3 3 3 3 2 1 0 0 1 0 0 0 0 0 0 0 0 0 0 0
0 0 0 0 0 0 0 0 0 0 0 0 0 0 0 0 0 0 0 0 1 2 3 3 3 3 3 2 1 0 0 0 0 0 0 0 0 1 1 1 0 0 0
0 0 0 0 0 1 1 1 0 0 1 1 1 1 0 0 0 0 0 1 2 3 3 3 3 3 3 1 0 0 0 0 0 0 0 0 0 1 2 1 0 0 0
0 0 0 0 0 2 3 3 1 1 3 3 3 2 0 0 0 1 1 1 2 3 3 3 3 3 3 1 1 1 0 0 0 0 0 0 0 1 1 1 0 0 0
2 1 0 0 1 3 5 5 3 3 4 5 4 2 1 1 1 2 2 2 3 3 3 3 3 3 3 2 2 1 0 0 0 0 0 0 0 0 0 0 1 1 1
4 4 3 2 3 4 5 6 5 6 6 5 4 2 3 3 2 3 3 3 3 3 3 3 3 3 3 2 1 1 0 1 1 1 0 0 0 0 0 1 3 3 3
4 5 5 5 5 5 5 6 7 8 8 6 4 3 4 5 4 3 3 3 3 3 3 3 3 3 2 1 0 0 1 2 2 2 1 0 0 0 1 1 2 3 4
4 5 5 5 5 5 4 5 7 9 9 7 5 5 5 6 4 3 3 3 3 3 3 3 1 1 1 1 1 1 2 2 2 2 1 1 1 1 2 2 3 3 4
5 5 4 4 5 5 4 4 6 8 9 8 7 6 7 6 5 4 3 2 3 4 3 3 1 0 0 1 3 3 1 1 1 1 1 2 2 3 4 4 4 4 4
6 6 6 7 8 8 7 6 6 7 8 8 8 8 8 7 7 6 4 3 3 4 3 2 1 1 1 3 5 5 3 1 0 0 1 2 3 3 4 4 3 4 5
5 6 9 11 12 12 12 10 9 9 8 8 9 9 9 8 8 7 5 3 4 3 2 1 1 1 3 5 6 7 6 5 4 3 2 1 2 3 3 2 2 3 4
6 7 10 14 17 18 16 15 14 12 10 10 10 10 9 9 9 7 4 3 3 2 2 3 3 4 4 5 6 6 6 7 8 7 4 2 2 3 4 3 2 2 2
9 9 11 16 20 23 20 18 17 15 12 11 12 11 11 10 9 6 4 3 2 2 3 6 7 6 5 5 5 5 5 7 9 9 6 3 1 3 5 4 2 2 2
Wind_Speed
7 10 11 11 12 12 13 13 14 14 14 14 14 14 15 14 14 14 14 14 14 14 14 13 13 12 12 13 13 12 12 12 12 12 12 12 12 12 12 11 10 12 13
9 11 12 11 12 12 12 13 13 13 14 14 14 14 14 14 14 14 14 13 13 13 13 13 12 12 12 12 12 12 12 12 12 11 12 12 12 12 11 9 8 11 12
10 11 12 11 12 12 12 13 13 13 13 13 13 13 13 13 13 13 13 12 13 13 13 13 13 12 12 12 12 11 11 11 11 9 9 9 12 12 11 11 12 12 12
10 11 11 12 12 12 12 12 12 12 12 12 13 13 13 12 12 12 12 12 12 12 12 12 12 12 12 12 11 11 11 11 9 7 6 8 11 12 11 11 12 11 11
10 12 13 11 12 12 11 11 11 12 12 13 13 12 12 12 12 12 11 12 12 12 12 12 12 11 11 11 11 11 10 9 6 4 7 8 10 12 11 11 11 11 11
11 12 13 10 11 11 11 11 11 11 12 12 12 12 12 12 12 11 11 11 11 11 11 11 11 11 10 10 10 10 9 7 6 7 7 7 9 12 11 11 11 11 11
10 11 13 11 10 10 10 10 11 11 11 12 12 12 12 12 11 11 11 11 10 10 11 10 10 10 10 10 9 8 7 3 2 7 7 7 10 11 10 10 10 11 10
10 11 13 11 10 10 10 10 10 10 11 11 11 11 11 11 11 10 10 10 10 10 10 10 9 9 9 9 8 7 5 3 5 6 7 8 10 9 10 10 10 10 10
9 9 10 10 11 11 10 10 10 10 10 10 11 11 10 10 10 10 10 9 9 9 9 9 9 9 8 8 7 7 4 1 2 5 6 7 10 8 9 9 9 9 9
7 7 8 8 8 9 11 10 10 10 10 10 10 10 9 10 9 8 9 9 9 9 9 9 8 8 8 7 7 6 4 5 4 6 4 8 10 9 8 8 9 9 9
7 6 6 7 6 6 8 11 10 10 8 8 9 8 5 5 7 6 9 9 8 8 8 8 8 7 7 8 7 5 5 2 4 4 4 10 9 9 9 8 8 8 9
8 7 5 5 6 6 6 6 5 6 6 4 5 5 4 4 3 5 9 7 7 7 8 7 7 7 6 5 7 7 2 2 2 4 6 9 8 8 9 9 8 8 8
8 7 6 5 4 4 4 4 3 3 4 4 5 4 3 2 3 3 4 5 5 6 5 7 6 3 2 2 2 2 1 1 1 3 7 9 7 8 9 9 9 8 8
8 7 6 6 4 3 2 3 3 3 3 3 4 2 3 2 1 2 1 2 2 2 2 1 1 2 1 1 1 1 1 1 1 2 5 8 7 7 8 9 9 9 8
7 7 6 6 5 4 2 2 3 2 2 3 2 2 1 2 2 2 1 0 0 1 2 1 1 1 1 1 1 1 1 1 1 2 4 8 7 7 8 9 9 9 9
7 7 7 6 5 4 3 2 2 2 2 1 2 2 1 1 2 1 1 0 0 0 1 0 1 1 1 1 1 1 2 2 2 2 4 6 8 7 8 9 9 9 9
7 7 7 6 6 5 4 4 3 2 2 1 2 2 1 1 1 1 1 1 0 0 1 1 1 1 2 2 2 2 2 2 2 2 3 3 6 9 9 9 9 9 9
7 7 7 6 7 6 5 3 2 2 2 2 1 2 2 1 2 2 1 0 0 1 1 1 2 1 1 1 1 1 1 2 3 3 3 3 3 4 8 10 10 10 10
7 7 7 7 6 6 6 4 3 2 2 2 2 1 1 2 2 2 1 0 2 1 1 2 0 1 1 1 2 3 2 3 3 4 4 4 4 4 4 9 11 9 10
7 7 7 7 6 6 5 4 3 3 3 3 2 2 2 2 2 2 2 2 2 1 1 1 1 1 2 2 3 1 2 2 3 3 4 4 5 5 5 5 7 9 11
8 8 8 8 7 6 5 5 5 4 4 3 3 3 3 3 3 3 3 1 3 2 2 2 2 2 2 2 2 2 2 3 3 3 3 3 4 4 4 5 5 4 6
9 9 9 9 8 8 6 4 4 3 3 3 3 3 4 4 4 3 2 3 2 2 3 3 3 3 2 2 2 2 2 3 4 3 3 4 3 3 4 5 5 5 5
10 9 8 9 8 8 7 5 4 4 4 4 5 4 4 4 4 3 3 3 3 3 2 3 3 3 3 2 2 2 2 1 1 3 3 2 2 2 3 3 5 5 5
10 9 9 9 9 8 8 8 8 6 5 4 3 3 3 4 4 4 5 4 4 3 3 4 3 3 3 3 2 2 3 2 2 1 3 3 3 3 3 3 3 4 5
10 10 9 9 9 8 8 8 7 7 5 4 3 3 3 3 4 4 4 4 4 4 3 4 3 4 3 3 3 2 2 2 4 3 2 2 2 2 2 3 2 3 4
9 9 9 9 9 9 9 8 8 7 6 5 4 4 4 3 3 4 4 4 4 3 3 3 3 4 3 3 3 3 3 3 3 3 3 3 2 2 1 1 2 2 3
Wind_Direction
103 101 102 99 98 97 98 99 100 101 102 102 104 107 109 109 109 110 109 109 110 111 111 110 111 111 110 108 108 109 110 110 109 109 111 111 110 111 110 115 124 108 110
109 107 105 100 99 99 99 100 101 102 102 104 105 107 109 110 110 109 108 110 113 113 112 110 109 108 109 108 107 108 111 113 114 117 123 120 115 113 110 102 83 103 114
111 111 112 101 101 100 100 100 102 103 103 105 106 108 109 110 109 108 108 108 111 112 112 112 110 108 108 107 107 107 109 111 115 131 154 132 119 115 111 106 102 111 113
112 112 104 104 103 102 102 102 102 102 102 103 104 106 106 107 108 110 108 108 109 111 113 113 111 110 109 108 108 108 109 111 121 164 145 116 119 117 117 116 114 112 112
113 108 102 106 105 104 104 104 102 102 101 102 101 102 103 102 104 109 109 109 111 111 111 111 110 110 109 110 108 108 110 116 142 161 99 104 109 120 123 122 120 117 116
113 109 107 107 106 108 107 106 104 104 102 101 101 100 100 100 100 101 106 108 109 111 112 111 111 110 109 109 108 110 116 138 179 110 107 111 112 122 125 127 127 125 124
111 110 111 108 107 108 108 107 105 104 103 101 100 99 99 101 103 105 106 106 107 109 110 110 110 110 110 109 111 115 124 163 131 107 109 106 105 122 129 130 130 131 131
113 112 112 111 105 105 108 107 105 104 104 101 100 99 99 99 101 106 107 106 106 108 109 110 110 111 112 112 115 120 135 207 131 109 115 109 111 126 133 135 134 136 136
114 115 119 126 122 114 107 106 106 105 103 101 99 99 101 100 99 98 103 105 107 109 110 109 109 108 113 115 116 117 120 233 130 113 115 109 123 135 137 139 141 141 140
112 113 120 119 121 129 126 116 110 107 105 103 100 100 107 112 111 111 114 102 103 106 108 109 110 111 112 115 117 125 152 211 141 123 116 114 132 142 145 147 143 146 146
123 122 124 122 125 124 120 124 129 122 119 128 120 122 153 131 120 129 93 102 105 107 108 109 115 120 130 134 132 152 204 187 111 105 102 116 143 149 153 154 152 153 152
139 135 133 124 126 126 116 123 130 128 124 119 105 121 118 99 93 101 110 111 111 116 125 120 128 161 188 151 152 191 185 136 126 125 113 131 151 160 162 162 164 163 162
144 144 140 131 126 122 120 124 117 114 117 121 113 111 101 120 131 134 132 140 140 152 144 142 174 173 140 121 156 158 127 144 127 123 122 141 159 170 171 169 171 170 169
154 151 149 140 140 129 116 122 138 134 129 120 121 144 125 111 104 98 110 114 138 131 113 121 129 110 110 152 170 144 157 210 132 110 121 146 167 175 177 176 177 177 175
163 163 155 152 147 146 148 169 134 124 121 121 123 119 125 135 104 97 94 80 101 110 148 153 133 125 200 195 211 182 179 183 167 161 132 152 171 182 184 183 183 184 185
175 169 162 166 160 166 172 171 152 155 143 144 141 135 154 106 99 121 156 161 13 259 48 175 158 171 236 230 213 186 209 196 175 175 158 156 172 183 185 187 188 192 192
178 171 169 175 173 180 190 191 182 180 166 162 146 152 175 198 153 197 212 214 116 251 197 235 251 230 222 205 197 199 206 216 186 185 188 177 174 178 189 195 197 197 195
184 175 182 188 178 186 195 210 205 192 172 178 196 182 188 213 215 242 246 204 149 242 226 223 236 257 267 236 219 233 203 197 205 196 197 196 194 179 182 193 201 202 200
191 185 193 200 189 191 193 204 212 200 208 209 209 205 189 214 223 239 254 105 251 251 251 263 86 261 231 236 228 210 213 206 208 201 200 199 198 202 192 177 192 201 204
192 193 199 200 199 196 194 198 214 209 201 210 211 211 233 222 223 245 233 215 252 249 272 309 301 277 257 250 262 243 235 220 210 196 203 191 197 202 207 195 191 195 199
197 199 202 205 196 199 199 205 204 204 205 207 212 215 226 233 227 238 266 223 250 247 254 256 258 239 238 235 232 216 212 199 192 193 206 205 195 196 198 200 212 204 190
199 205 207 206 200 201 201 209 218 221 220 215 221 212 227 227 230 225 235 253 244 249 252 268 262 261 248 228 245 236 208 179 188 186 190 195 204 200 196 195 200 208 221
202 205 207 206 202 206 204 205 204 205 223 214 213 210 220 225 229 242 241 245 247 252 249 253 251 248 254 239 238 267 272 245 162 172 191 189 201 222 217 199 202 205 213
205 202 205 203 203 203 205 213 212 215 223 226 232 219 210 217 225 226 231 234 242 250 247 249 240 253 255 257 231 243 275 308 274 213 193 184 199 217 234 240 215 203 214
202 200 198 197 200 201 207 211 217 226 227 227 230 223 231 219 225 230 232 232 237 246 250 258 258 257 250 256 253 239 228 231 249 250 242 224 213 211 211 231 236 222 214
200 198 195 191 196 200 206 211 219 230 232 233 229 231 228 221 221 221 231 229 235 243 245 249 248 245 257 266 268 260 253 252 247 244 247 245 249 249 233 235 239 231 224